Location: Franzen
(48.6167°N, 15.3833°E)
Time: 21:18:10
(UTC+00:00)

Transit 2A - Pass Details

Date: 08 August 2021
Orbit: 594 x 964 km, 66.7° (Epoch: 26 September)

Event Time Altitude Azimuth Distance (km) Brightness Sun altitude
Rises 02:57:40 0° 186° (S) 2,836 8.6 -7.2°
Reaches altitude 10° 03:00:01 10° 176° (S) 1,960 7.8 -6.9°
Maximum altitude 03:03:54 31° 113° (ESE) 1,106 7.3 -6.3°
Drops below altitude 10° 03:08:03 10° 51° (NE) 2,106 10.1 -5.8°
Sets 03:10:40 0° 42° (NE) 3,085 11.0 -5.4°
